WAT1942 KORL-KHOU

Flight info

Callsign WAT1942
Flight time N/A
Altitude 40000
Route NYTES2 NYTES OSPRY GDUNN KNOST REMIS BLVNS BOWFN KCEEE BAYYY5
Aircraft GLF6/M-L/S

Departure

Time 2026-04-23 00:08
Airport Orlando Executive Airport (KORL)

Arrival

Time N/A
Airport William P. Hobby Airport (KHOU)
Time Latitude Longitude Altitude Speed Heading
2026-04-22 23:45 28.54918 -81.33958 110 ft 0 kts 128°
2026-04-23 00:04 28.54917 -81.33957 110 ft 0 kts 129°
2026-04-23 00:04 28.54909 -81.33947 110 ft 3 kts 142°
2026-04-23 00:05 28.54867 -81.33922 110 ft 9 kts 152°
2026-04-23 00:05 28.54794 -81.33867 110 ft 15 kts 141°
2026-04-23 00:05 28.54718 -81.33772 110 ft 17 kts 129°
2026-04-23 00:05 28.54639 -81.33670 109 ft 18 kts 132°
2026-04-23 00:06 28.54577 -81.33596 109 ft 3 kts 164°
2026-04-23 00:06 28.54553 -81.33610 109 ft 7 kts 233°
2026-04-23 00:06 28.54519 -81.33699 107 ft 16 kts 248°
2026-04-23 00:06 28.54471 -81.33828 107 ft 18 kts 248°
2026-04-23 00:07 28.54424 -81.33954 107 ft 13 kts 240°
2026-04-23 00:07 28.54341 -81.33949 107 ft 12 kts 156°
2026-04-23 00:07 28.54288 -81.33904 107 ft 5 kts 88°
2026-04-23 00:07 28.54294 -81.33891 107 ft 0 kts 64°
2026-04-23 00:08 28.54308 -81.33856 107 ft 11 kts 66°
2026-04-23 00:08 28.54466 -81.33467 109 ft 93 kts 66°
2026-04-23 00:08 28.54801 -81.32588 216 ft 146 kts 69°
2026-04-23 00:08 28.55242 -81.31545 1036 ft 151 kts 63°
2026-04-23 00:09 28.55867 -81.30613 1925 ft 162 kts 50°
2026-04-23 00:09 28.56857 -81.29816 2627 ft 188 kts 31°
2026-04-23 00:09 28.57997 -81.29020 3341 ft 205 kts 51°
2026-04-23 00:09 28.58829 -81.27570 3798 ft 240 kts 62°
2026-04-23 00:10 28.59862 -81.26131 3867 ft 209 kts 41°
2026-04-23 00:10 28.60923 -81.25240 3873 ft 183 kts 39°
2026-04-23 00:10 28.61999 -81.24340 3297 ft 196 kts 40°
2026-04-23 00:10 28.62941 -81.23565 3863 ft 150 kts 39°
2026-04-23 00:11 28.63793 -81.22881 3913 ft 147 kts 39°
2026-04-23 00:11 28.64638 -81.22207 3940 ft 148 kts 39°
2026-04-23 00:11 28.65480 -81.21538 3951 ft 150 kts 37°
2026-04-23 00:11 28.66515 -81.21318 3972 ft 156 kts 347°
2026-04-23 00:12 28.67407 -81.22011 3970 ft 162 kts 302°
2026-04-23 00:12 28.67763 -81.23219 4017 ft 161 kts 281°
2026-04-23 00:12 28.67959 -81.24468 4020 ft 163 kts 280°
2026-04-23 00:12 28.68153 -81.25745 4023 ft 161 kts 281°
2026-04-23 00:13 28.68311 -81.27009 4010 ft 162 kts 266°
2026-04-23 00:13 28.67917 -81.28158 4051 ft 154 kts 233°
2026-04-23 00:13 28.67312 -81.29169 4051 ft 155 kts 233°
2026-04-23 00:13 28.66692 -81.30185 4055 ft 156 kts 232°
2026-04-23 00:14 28.65997 -81.31301 4173 ft 187 kts 232°
2026-04-23 00:14 28.65194 -81.32589 4239 ft 208 kts 233°
2026-04-23 00:14 28.64333 -81.33970 4273 ft 221 kts 233°
2026-04-23 00:14 28.63417 -81.35434 4354 ft 229 kts 233°
2026-04-23 00:15 28.62516 -81.36874 4936 ft 222 kts 233°
2026-04-23 00:15 28.61614 -81.38311 5526 ft 228 kts 234°
2026-04-23 00:15 28.60684 -81.39796 6127 ft 235 kts 234°
2026-04-23 00:15 28.59698 -81.41370 6777 ft 263 kts 235°
2026-04-23 00:16 28.58582 -81.43153 7471 ft 283 kts 234°
2026-04-23 00:16 28.57440 -81.44973 8073 ft 286 kts 234°
2026-04-23 00:16 28.56283 -81.46815 8666 ft 288 kts 234°
2026-04-23 00:16 28.55125 -81.48660 9259 ft 290 kts 235°
2026-04-23 00:17 28.53949 -81.50530 9850 ft 290 kts 235°
2026-04-23 00:17 28.52778 -81.52397 10446 ft 303 kts 236°
2026-04-23 00:17 28.51508 -81.54420 11144 ft 320 kts 236°
2026-04-23 00:17 28.50192 -81.56513 11787 ft 336 kts 236°
2026-04-23 00:18 28.48821 -81.58691 12433 ft 348 kts 236°
2026-04-23 00:18 28.47389 -81.60967 13074 ft 358 kts 236°
2026-04-23 00:18 28.45920 -81.63299 13706 ft 366 kts 236°
2026-04-23 00:18 28.44441 -81.65645 14342 ft 372 kts 236°
2026-04-23 00:19 28.42923 -81.68051 14992 ft 372 kts 236°
2026-04-23 00:19 28.41436 -81.70408 15561 ft 365 kts 236°
2026-04-23 00:19 28.39965 -81.72739 16330 ft 364 kts 237°
2026-04-23 00:19 28.38501 -81.75056 17185 ft 361 kts 237°
2026-04-23 00:20 28.37053 -81.77348 18030 ft 357 kts 237°
2026-04-23 00:20 28.35611 -81.79630 18677 ft 360 kts 237°
2026-04-23 00:20 28.34142 -81.81953 19207 ft 364 kts 237°
2026-04-23 00:20 28.32662 -81.84288 19751 ft 367 kts 237°
2026-04-23 00:21 28.31168 -81.86644 20295 ft 369 kts 237°
2026-04-23 00:21 28.29674 -81.89012 20821 ft 369 kts 240°
2026-04-23 00:21 28.28804 -81.91690 21258 ft 364 kts 263°
2026-04-23 00:21 28.28408 -81.94503 21856 ft 362 kts 261°
2026-04-23 00:22 28.27927 -81.97308 22384 ft 363 kts 261°
2026-04-23 00:22 28.27419 -82.00076 22922 ft 363 kts 260°
2026-04-23 00:22 28.26893 -82.02878 23472 ft 362 kts 260°
2026-04-23 00:22 28.26365 -82.05657 23953 ft 355 kts 260°
2026-04-23 00:23 28.25875 -82.08218 24353 ft 331 kts 260°
2026-04-23 00:23 28.25387 -82.10784 24791 ft 335 kts 260°
2026-04-23 00:23 28.24892 -82.13371 25275 ft 338 kts 260°
2026-04-23 00:23 28.24393 -82.15981 25760 ft 339 kts 260°
2026-04-23 00:24 28.23890 -82.18604 26249 ft 341 kts 260°
2026-04-23 00:24 28.23389 -82.21216 26732 ft 341 kts 260°
2026-04-23 00:24 28.22889 -82.23815 27208 ft 342 kts 261°
2026-04-23 00:24 28.22383 -82.26445 27690 ft 342 kts 260°
2026-04-23 00:25 28.21875 -82.29086 28173 ft 341 kts 261°
2026-04-23 00:25 28.21371 -82.31699 28651 ft 341 kts 260°
2026-04-23 00:25 28.20871 -82.34288 29126 ft 339 kts 261°
2026-04-23 00:25 28.20369 -82.36888 29597 ft 338 kts 261°
2026-04-23 00:26 28.19865 -82.39494 30050 ft 337 kts 260°
2026-04-23 00:26 28.19362 -82.42091 30495 ft 336 kts 261°
2026-04-23 00:26 28.18867 -82.44647 30939 ft 334 kts 261°
2026-04-23 00:26 28.18373 -82.47192 31387 ft 332 kts 260°
2026-04-23 00:27 28.17876 -82.49747 31825 ft 330 kts 261°
2026-04-23 00:27 28.17385 -82.52278 32267 ft 327 kts 260°
2026-04-23 00:27 28.16896 -82.54790 32707 ft 325 kts 260°
2026-04-23 00:27 28.16417 -82.57251 33144 ft 322 kts 260°
2026-04-23 00:28 28.15940 -82.59695 33572 ft 319 kts 260°
2026-04-23 00:28 28.15169 -82.61886 35128 ft 279 kts 243°
2026-04-23 00:28 28.14131 -82.63422 36525 ft 244 kts 240°
2026-04-23 00:28 28.13076 -82.64999 36356 ft 260 kts 241°
2026-04-23 00:29 28.12011 -82.66651 36433 ft 253 kts 241°
2026-04-23 00:29 28.10996 -82.68240 36278 ft 250 kts 241°
2026-04-23 00:29 28.10233 -82.69961 35916 ft 237 kts 272°
2026-04-23 00:29 28.10528 -82.71589 36868 ft 202 kts 284°
2026-04-23 00:30 28.10942 -82.73056 37356 ft 195 kts 284°
2026-04-23 00:30 28.11349 -82.74514 37707 ft 190 kts 284°
2026-04-23 00:30 28.11688 -82.75929 38047 ft 185 kts 277°
2026-04-23 00:30 28.11810 -82.77367 38192 ft 187 kts 271°
2026-04-23 00:31 28.11779 -82.78849 38361 ft 189 kts 268°
2026-04-23 00:31 28.11650 -82.80336 38514 ft 192 kts 264°
2026-04-23 00:31 28.11453 -82.81838 38669 ft 194 kts 264°
2026-04-23 00:31 28.11215 -82.83354 38834 ft 197 kts 263°
2026-04-23 00:32 28.10948 -82.84893 38990 ft 199 kts 262°
2026-04-23 00:32 28.10669 -82.86415 39211 ft 197 kts 262°
2026-04-23 00:32 28.10379 -82.87950 39285 ft 203 kts 262°
2026-04-23 00:32 28.10083 -82.89520 39331 ft 209 kts 262°
2026-04-23 00:33 28.09781 -82.91154 39357 ft 216 kts 262°
2026-04-23 00:33 28.09466 -82.92843 39379 ft 223 kts 261°
2026-04-23 00:33 28.09139 -82.94594 39421 ft 230 kts 262°
2026-04-23 00:33 28.08805 -82.96372 39449 ft 237 kts 261°
2026-04-23 00:34 28.08455 -82.98231 39478 ft 244 kts 261°
2026-04-23 00:34 28.08061 -83.00120 39678 ft 243 kts 252°
2026-04-23 00:34 28.07012 -83.01582 39896 ft 251 kts 240°
2026-04-23 00:34 28.06157 -83.03170 40205 ft 225 kts 243°
2026-04-23 00:35 28.05291 -83.04321 41537 ft 178 kts 233°
2026-04-23 00:35 28.04395 -83.05330 41042 ft 203 kts 239°
2026-04-23 00:35 28.03093 -83.06270 38708 ft 315 kts 191°
2026-04-23 00:35 28.02913 -83.07864 32463 ft 370 kts 285°
2026-04-23 00:36 28.03458 -83.09848 35958 ft 223 kts 287°
2026-04-23 00:36 28.03820 -83.10761 37857 ft 115 kts 290°
2026-04-23 00:36 28.04187 -83.11734 35620 ft 204 kts 283°
2026-04-23 00:36 28.04583 -83.13393 34012 ft 242 kts 276°
2026-04-23 00:37 28.04855 -83.15190 34788 ft 226 kts 279°
2026-04-23 00:37 28.05166 -83.16939 35054 ft 231 kts 281°
2026-04-23 00:37 28.05497 -83.18775 35012 ft 245 kts 270°
2026-04-23 00:37 28.05017 -83.20644 35085 ft 258 kts 246°
2026-04-23 00:38 28.04269 -83.22463 35353 ft 257 kts 254°
2026-04-23 00:38 28.03706 -83.24377 35632 ft 256 kts 257°
2026-04-23 00:38 28.03231 -83.26334 35915 ft 259 kts 258°
2026-04-23 00:38 28.02803 -83.28303 36215 ft 261 kts 259°
2026-04-23 00:39 28.02395 -83.30307 36521 ft 263 kts 261°
2026-04-23 00:39 28.01994 -83.32296 36789 ft 252 kts 259°
2026-04-23 00:39 28.01621 -83.34159 36879 ft 239 kts 259°
2026-04-23 00:39 28.01265 -83.35975 36860 ft 230 kts 259°
2026-04-23 00:40 28.00927 -83.37717 36767 ft 224 kts 259°
2026-04-23 00:40 28.00599 -83.39414 36621 ft 219 kts 259°
2026-04-23 00:40 28.00278 -83.41082 36449 ft 216 kts 259°
2026-04-23 00:40 28.00005 -83.42733 36236 ft 213 kts 265°
2026-04-23 00:41 27.99916 -83.44383 36034 ft 208 kts 266°
2026-04-23 00:41 27.99793 -83.46009 35783 ft 209 kts 261°
2026-04-23 00:41 27.99539 -83.47613 35017 ft 215 kts 265°
2026-04-23 00:41 27.99460 -83.49331 33536 ft 238 kts 274°
2026-04-23 00:42 27.99899 -83.51184 31480 ft 279 kts 294°
2026-04-23 00:42 28.00775 -83.53133 29750 ft 292 kts 294°
2026-04-23 00:42 28.01590 -83.55225 27927 ft 306 kts 290°
2026-04-23 00:42 28.02225 -83.57484 25657 ft 325 kts 285°
2026-04-23 00:43 28.02902 -83.59854 23622 ft 329 kts 289°
2026-04-23 00:43 28.03658 -83.62218 21479 ft 337 kts 290°
2026-04-23 00:43 28.04197 -83.64743 19162 ft 347 kts 279°
2026-04-23 00:43 28.04304 -83.67397 17006 ft 347 kts 274°
2026-04-23 00:44 28.05245 -83.69617 15898 ft 323 kts 324°
2026-04-23 00:44 28.07357 -83.69780 13925 ft 348 kts 31°
2026-04-23 00:44 28.08307 -83.67352 11892 ft 359 kts 92°
2026-04-23 00:44 28.07885 -83.64799 11675 ft 310 kts 105°
2026-04-23 00:45 28.07317 -83.62548 11185 ft 285 kts 108°
2026-04-23 00:45 28.06591 -83.60556 10645 ft 270 kts 119°
2026-04-23 00:45 28.05428 -83.58958 9773 ft 266 kts 139°
2026-04-23 00:45 28.04086 -83.57591 9482 ft 262 kts 135°
2026-04-23 00:46 28.03032 -83.55832 8413 ft 304 kts 96°